This demonstration page uses our WeatherBlox Daily Observations layout. Learn more.

Left ArrowRight Arrow

Hourly Observations for June 27, 2021

Temp ( °F °C ) Dew Point ( °F °C ) Humidity (%) Winds ( mph kmh ) Pressure ( in mb ) Visibility ( mi km ) Precip ( " mm )
12:59 am 00:59 Mostly Clear 76 24.4 71 21.7 85 85 S 8 13 30.22 1024 10 16 0.00 0.00
1:59 am 01:59 Partly Cloudy 74 23.3 71 21.7 91 91 S 6 9 30.23 1024 9 14 0.00 0.00
2:59 am 02:59 Partly Cloudy 75 23.9 71 21.7 88 88 S 5 7 30.22 1023 8 13 0.00 0.00
3:59 am 03:59 Partly Cloudy 74 23.3 71 21.7 91 91 S 5 7 30.22 1023 8 13 0.00 0.00
4:59 am 04:59 Partly Cloudy 73 22.8 71 21.7 94 94 S 5 7 30.22 1023 7 11 0.00 0.00
5:59 am 05:59 Mostly Cloudy with Mist and Fog 74 23.3 71 21.7 91 91 S 6 9 30.23 1024 5 8 0.00 0.00
6:59 am 06:59 Partly Cloudy with Mist and Fog 75 23.9 72 22.2 90 90 S 5 7 30.24 1024 6 10 0.00 0.00
7:39 am 07:39 Partly Cloudy 77 25 73 22.8 88 88 VRB 6 9 30.25 1024 7 11 0.00 0.00
7:59 am 07:59 Partly Cloudy 77 25 72 22.2 85 85 SSW 6 9 30.25 1024 8 13 0.00 0.00
8:55 am 08:55 Mostly Cloudy 81 27 73 23 79 79 VRB 6 9 30.26 1025 9 14 0.00 0.00
8:59 am 08:59 Mostly Cloudy 80 26.7 72 22.2 76 76 WSW 8 13 30.26 1025 9 14 0.00 0.00
9:59 am 09:59 Mostly Cloudy 80 26.7 71 21.7 74 74 SW 7 11 30.26 1025 9 14 0.00 0.00
10:59 am 10:59 Mostly Cloudy 83 28.3 71 21.7 67 67 SSW 6 9 30.26 1025 10 16 0.00 0.00
11:59 am 11:59 Mostly Cloudy 85 29.4 71 21.7 63 63 VRB 7 11 30.26 1025 10 16 0.00 0.00
12:59 pm 12:59 Mostly Cloudy 83 28.3 71 21.7 67 67 ENE 10 17 30.25 1025 10 16 0.00 0.00
1:59 pm 13:59 Mostly Cloudy 86 30 71 21.7 61 61 ENE 8 13 30.24 1024 10 16 0.00 0.00
2:59 pm 14:59 Partly Cloudy 87 30.6 72 22.2 61 61 N 9 15 30.23 1024 9 14 0.00 0.00
3:59 pm 15:59 Partly Cloudy 88 31.1 73 22.8 61 61 NNE 7 11 30.22 1023 10 16 0.00 0.00
4:59 pm 16:59 Sunny 88 31.1 70 21.1 55 55 VRB 5 7 30.21 1023 10 16 0.00 0.00
5:59 pm 17:59 Partly Cloudy 86 30 71 21.7 61 61 S 9 15 30.20 1023 10 16 0.00 0.00
6:59 pm 18:59 Partly Cloudy 85 29.4 70 21.1 61 61 SSE 9 15 30.21 1023 10 16 0.00 0.00
7:59 pm 19:59 Mostly Sunny 82 27.8 70 21.1 67 67 SSE 9 15 30.21 1023 10 16 0.00 0.00
8:59 pm 20:59 Mostly Clear 80 26.7 70 21.1 71 71 SSE 9 15 30.22 1023 10 16 0.00 0.00
9:59 pm 21:59 Mostly Clear 78 25.6 71 21.7 79 79 SSE 8 13 30.23 1024 10 16 0.00 0.00
10:59 pm 22:59 Clear 78 25.6 71 21.7 79 79 SSE 8 13 30.24 1024 10 16 0.00 0.00
11:59 pm 23:59 Clear 77 25 72 22.2 85 85 S 7 11 30.23 1024 10 16 0.00 0.00

Powered by AerisWeather